TimeEST,TemperatureF,Dew PointF,Humidity,Sea Level PressureIn,VisibilityMPH,Wind Direction,Wind SpeedMPH,Gust SpeedMPH,PrecipitationIn,Events,Conditions,WindDirDegrees,DateUTC
12:15 AM,47.8,46.2,94,30.05,10.0,Calm,Calm,-,N/A,,Clear,0,2013-02-06 05:15:00
12:35 AM,46.9,46.4,98,30.04,10.0,Calm,Calm,-,N/A,,Clear,0,2013-02-06 05:35:00
12:55 AM,46.6,44.8,93,30.05,10.0,Calm,Calm,-,N/A,,Clear,0,2013-02-06 05:55:00
1:15 AM,45.3,44.1,95,30.05,10.0,Calm,Calm,-,N/A,,Scattered Clouds,0,2013-02-06 06:15:00
1:35 AM,45.3,44.1,95,30.05,10.0,Calm,Calm,-,N/A,,Clear,0,2013-02-06 06:35:00
1:55 AM,45.3,44.4,97,30.05,10.0,Calm,Calm,-,N/A,,Clear,0,2013-02-06 06:55:00
2:15 AM,44.4,43.2,95,30.06,10.0,Calm,Calm,-,N/A,,Scattered Clouds,0,2013-02-06 07:15:00
2:35 AM,43.9,43.2,97,30.06,10.0,Calm,Calm,-,N/A,,Mostly Cloudy,0,2013-02-06 07:35:00
2:55 AM,44.1,43.2,97,30.06,10.0,Calm,Calm,-,N/A,,Mostly Cloudy,0,2013-02-06 07:55:00
3:15 AM,45.0,43.5,95,30.07,10.0,Calm,Calm,-,N/A,,Mostly Cloudy,0,2013-02-06 08:15:00
3:35 AM,43.7,42.8,97,30.07,10.0,Calm,Calm,-,N/A,,Scattered Clouds,0,2013-02-06 08:35:00
3:55 AM,43.0,42.8,99,30.07,7.0,Calm,Calm,-,N/A,,Scattered Clouds,0,2013-02-06 08:55:00
4:15 AM,42.3,42.1,99,30.08,2.0,Calm,Calm,-,N/A,,Scattered Clouds,0,2013-02-06 09:15:00
4:35 AM,42.3,42.1,99,30.08,0.8,Calm,Calm,-,N/A,,Mostly Cloudy,0,2013-02-06 09:35:00
4:55 AM,41.4,40.6,97,30.08,10.0,Calm,Calm,-,N/A,,Clear,0,2013-02-06 09:55:00
5:15 AM,40.1,40.1,100,30.09,0.2,Calm,Calm,-,N/A,Fog,Fog,0,2013-02-06 10:15:00
5:35 AM,40.6,40.6,100,30.09,4.0,Calm,Calm,-,N/A,,Scattered Clouds,0,2013-02-06 10:35:00
5:55 AM,39.9,39.9,100,30.10,0.5,Calm,Calm,-,N/A,Fog,Fog,0,2013-02-06 10:55:00
6:15 AM,38.7,38.5,99,30.10,10.0,Calm,Calm,-,N/A,,Scattered Clouds,0,2013-02-06 11:15:00
6:35 AM,39.4,38.8,98,30.11,10.0,Calm,Calm,-,N/A,,Overcast,0,2013-02-06 11:35:00
6:55 AM,37.8,37.6,99,30.12,0.2,Calm,Calm,-,N/A,Fog,Fog,0,2013-02-06 11:55:00
7:15 AM,39.4,39.4,100,30.12,0.2,Calm,Calm,-,N/A,Fog,Fog,0,2013-02-06 12:15:00
7:35 AM,40.5,40.5,100,30.14,0.2,Calm,Calm,-,N/A,Fog,Fog,0,2013-02-06 12:35:00
7:55 AM,41.0,41.0,100,30.14,0.2,Calm,Calm,-,N/A,Fog,Fog,0,2013-02-06 12:55:00
8:15 AM,41.9,41.9,100,30.15,0.2,Calm,Calm,-,N/A,Fog,Fog,0,2013-02-06 13:15:00
8:35 AM,43.0,43.0,100,30.16,0.2,Calm,Calm,-,N/A,Fog,Fog,0,2013-02-06 13:35:00
8:55 AM,44.4,44.4,100,30.17,0.2,Calm,Calm,-,N/A,Fog,Fog,0,2013-02-06 13:55:00
9:15 AM,46.2,46.2,100,30.18,0.2,Calm,Calm,-,N/A,Fog,Fog,0,2013-02-06 14:15:00
9:35 AM,47.3,47.3,100,30.19,0.2,Calm,Calm,-,N/A,Fog,Fog,0,2013-02-06 14:35:00
9:55 AM,49.6,49.6,100,30.19,2.5,Calm,Calm,-,N/A,,Mostly Cloudy,0,2013-02-06 14:55:00
10:15 AM,51.6,49.3,92,30.19,7.0,NE,3.5,-,N/A,,Scattered Clouds,50,2013-02-06 15:15:00
10:35 AM,54.7,48.6,80,30.19,10.0,ENE,3.5,-,N/A,,Clear,70,2013-02-06 15:35:00
10:55 AM,57.0,46.8,69,30.18,10.0,SE,3.5,-,N/A,,Clear,130,2013-02-06 15:55:00
11:15 AM,60.6,45.1,57,30.17,10.0,Calm,Calm,-,N/A,,Clear,0,2013-02-06 16:15:00
11:35 AM,61.7,43.3,51,30.17,10.0,Calm,Calm,-,N/A,,Clear,0,2013-02-06 16:35:00
11:55 AM,64.2,36.0,35,30.17,10.0,East,5.8,-,N/A,,Clear,100,2013-02-06 16:55:00
12:15 PM,64.8,36.1,35,30.17,10.0,ENE,3.5,-,N/A,,Clear,70,2013-02-06 17:15:00
12:35 PM,64.6,35.8,34,30.16,10.0,East,3.5,-,N/A,,Clear,80,2013-02-06 17:35:00
12:55 PM,65.8,36.1,33,30.16,10.0,Calm,Calm,-,N/A,,Clear,0,2013-02-06 17:55:00
1:15 PM,67.3,37.0,33,30.15,10.0,NW,4.6,-,N/A,,Clear,310,2013-02-06 18:15:00
1:35 PM,66.9,33.8,29,30.14,10.0,Calm,Calm,-,N/A,,Clear,0,2013-02-06 18:35:00
1:55 PM,67.5,33.3,28,30.13,10.0,Calm,Calm,-,N/A,,Clear,0,2013-02-06 18:55:00
2:15 PM,68.5,33.1,27,30.12,10.0,NNE,4.6,-,N/A,,Clear,30,2013-02-06 19:15:00
2:35 PM,68.5,32.5,26,30.12,10.0,Calm,Calm,-,N/A,,Clear,0,2013-02-06 19:35:00
2:55 PM,70.0,32.7,25,30.11,10.0,Calm,Calm,-,N/A,,Clear,0,2013-02-06 19:55:00
3:15 PM,70.0,30.9,24,30.11,10.0,NW,3.5,-,N/A,,Clear,310,2013-02-06 20:15:00
3:35 PM,70.0,32.0,25,30.11,10.0,Calm,Calm,-,N/A,,Clear,0,2013-02-06 20:35:00
3:55 PM,70.0,31.8,24,30.09,10.0,NNE,4.6,-,N/A,,Clear,20,2013-02-06 20:55:00
4:15 PM,69.8,32.0,25,30.10,10.0,North,3.5,-,N/A,,Clear,350,2013-02-06 21:15:00
4:35 PM,69.8,30.6,23,30.09,10.0,Calm,Calm,-,N/A,,Clear,0,2013-02-06 21:35:00
4:55 PM,69.3,30.4,24,30.09,10.0,Calm,Calm,-,N/A,,Clear,0,2013-02-06 21:55:00
5:15 PM,69.4,31.6,25,30.09,10.0,Calm,Calm,-,N/A,,Clear,0,2013-02-06 22:15:00
5:35 PM,66.2,32.0,28,30.10,10.0,Calm,Calm,-,N/A,,Clear,0,2013-02-06 22:35:00
5:55 PM,65.3,34.0,31,30.09,10.0,Calm,Calm,-,N/A,,Clear,0,2013-02-06 22:55:00
6:15 PM,61.2,36.1,39,30.09,10.0,Calm,Calm,-,N/A,,Clear,0,2013-02-06 23:15:00
6:35 PM,58.5,36.7,44,30.08,10.0,Calm,Calm,-,N/A,,Clear,0,2013-02-06 23:35:00
6:55 PM,55.6,37.8,51,30.08,10.0,Calm,Calm,-,N/A,,Clear,0,2013-02-06 23:55:00
7:15 PM,52.5,38.7,59,30.09,10.0,Calm,Calm,-,N/A,,Clear,0,2013-02-07 00:15:00
7:35 PM,49.8,37.6,63,30.09,10.0,Calm,Calm,-,N/A,,Clear,0,2013-02-07 00:35:00
7:55 PM,50.0,37.4,62,30.11,10.0,Calm,Calm,-,N/A,,Clear,0,2013-02-07 00:55:00
8:15 PM,49.3,38.7,67,30.12,10.0,Calm,Calm,-,N/A,,Clear,0,2013-02-07 01:15:00
8:35 PM,47.8,38.8,71,30.11,10.0,Calm,Calm,-,N/A,,Clear,0,2013-02-07 01:35:00
8:55 PM,46.9,37.4,69,30.12,10.0,Calm,Calm,-,N/A,,Clear,0,2013-02-07 01:55:00
9:15 PM,46.6,38.7,74,30.12,10.0,Calm,Calm,-,N/A,,Clear,0,2013-02-07 02:15:00
9:35 PM,45.9,38.5,75,30.12,10.0,Calm,Calm,-,N/A,,Clear,0,2013-02-07 02:35:00
9:55 PM,44.2,38.1,79,30.11,10.0,Calm,Calm,-,N/A,,Clear,0,2013-02-07 02:55:00
10:15 PM,44.6,38.3,79,30.11,10.0,Calm,Calm,-,N/A,,Clear,0,2013-02-07 03:15:00
10:35 PM,44.2,38.3,80,30.11,10.0,Calm,Calm,-,N/A,,Clear,0,2013-02-07 03:35:00
10:55 PM,44.1,37.9,79,30.11,10.0,Calm,Calm,-,N/A,,Clear,0,2013-02-07 03:55:00
11:15 PM,42.6,37.4,82,30.10,10.0,Calm,Calm,-,N/A,,Clear,0,2013-02-07 04:15:00
11:35 PM,42.1,37.6,84,30.10,10.0,Calm,Calm,-,N/A,,Clear,0,2013-02-07 04:35:00
11:55 PM,41.7,37.4,85,30.10,10.0,Calm,Calm,-,N/A,,Clear,0,2013-02-07 04:55:00